Weather History for 94387 - November, 2013

Change the Weather History Date:

Saturday, November 16, 2013

  Actual Average Record
Temperature  
Mean Temperature 79 °F -  
Max Temperature 91 °F - - ()
Min Temperature 67 °F - - ()
Cooling Degree Days 14    
Growing Degree Days 29 (Base 50)    
Moisture  
Dew Point 66 °F    
Average Humidity 70    
Maximum Humidity 94    
Minimum Humidity 27    
Precipitation  
Precipitation 0.00 in - - ()
Sea Level Pressure  
Sea Level Pressure 29.80 in    
Wind  
Wind Speed 8 mph ()    
Max Wind Speed 23 mph    
Max Gust Speed -    
Visibility 6.2 miles    
Events      
T = Trace of Precipitation, MM = Missing Value Source: Averaged Metar Reports

Daily Weather History Graph

Daily Weather History Graph

Search for Another Location

Airport or City:

Trip Planner

Search our weather history database for the weather conditions in past years. The results will help you decide how hot, cold, wet, or windy it might be!

Date:

Astronomy

Nov. 16, 2013 Rise Set
Actual Time 4:55 AM AEST 6:15 PM AEST
Civil Twilight 4:30 AM AEST 6:40 PM AEST
Nautical Twilight 4:01 AM AEST 7:09 PM AEST
Astronomical Twilight 3:31 AM AEST 7:40 PM AEST
Moon 5:01 PM AEST (11/16) 3:43 AM AEST (11/16)
Length of Visible Light 14h 09m
Length of Day
13h 20m
Waxing Gibbous, 98% of the Moon is Illuminated
Nov 16
Waxing Gibbous
Nov 18
Full
Nov 26
Last Quarter
Dec 3
New
Dec 10
First Quarter

Hourly Weather History & Observations

Time (AEST) Temp. Heat Index Dew Point Humidity Pressure Visibility Wind Dir Wind Speed Gust Speed Precip Events Conditions
12:00 AM 69 °F - 66 °F 88% 29.87 in - SSE 5.8 mph - -  
12:00 AM 69.8 °F - 66.2 °F 88% 29.86 in 6.2 mi SSE 5.8 mph - N/A   Mostly Cloudy
12:13 AM 68.0 °F - 66.2 °F 94% 29.86 in 6.2 mi SSE 4.6 mph - N/A   Scattered Clouds
1:00 AM 68.0 °F - 66.2 °F 94% 29.83 in 6.2 mi Calm Calm - N/A   Scattered Clouds
2:00 AM 68.0 °F - 66.2 °F 94% 29.80 in 6.2 mi North 3.5 mph - N/A   Unknown
3:00 AM 71 °F - 69 °F 92% 29.81 in - North 6.9 mph - -  
3:00 AM 71.6 °F - 69.8 °F 94% 29.80 in 6.2 mi North 6.9 mph - N/A   Unknown
4:00 AM 71.6 °F - 68.0 °F 88% 29.80 in 6.2 mi North 4.6 mph - N/A   Unknown
5:00 AM 69.8 °F - 68.0 °F 94% 29.83 in 6.2 mi Calm Calm - N/A   Unknown
6:00 AM 70 °F - 68 °F 93% 29.83 in - ESE 5.8 mph - -  
6:00 AM 69.8 °F - 68.0 °F 94% 29.83 in 6.2 mi ESE 5.8 mph - N/A   Unknown
7:00 AM 75.2 °F - 71.6 °F 89% 29.86 in 6.2 mi West 1.2 mph - N/A   Unknown
8:00 AM 78.8 °F - 69.8 °F 74% 29.86 in 6.2 mi NNW 13.8 mph - N/A   Scattered Clouds
9:00 AM 82 °F - 67 °F 51% 29.86 in - NNW 13.8 mph - -  
9:00 AM 82.4 °F 84.6 °F 66.2 °F 58% 29.86 in 6.2 mi NNW 13.8 mph - N/A   Scattered Clouds
10:00 AM 86.0 °F 86.6 °F 62.6 °F 45% 29.83 in 6.2 mi NNW 15.0 mph - N/A   Unknown
11:00 AM 87.8 °F 87.1 °F 59.0 °F 38% 29.83 in 6.2 mi NNW 10.4 mph - N/A   Unknown
12:00 PM 89 °F - 62 °F 30% 29.79 in - North 9.2 mph - -  
12:00 PM 89.6 °F 90.1 °F 62.6 °F 40% 29.77 in 6.2 mi North 9.2 mph - N/A   Unknown
1:00 PM 87.8 °F 87.6 °F 60.8 °F 40% 29.77 in 6.2 mi NNE 11.5 mph - N/A   Unknown
2:00 PM 91.4 °F 90.7 °F 59.0 °F 34% 29.71 in 6.2 mi North 12.7 mph - N/A   Unknown
3:00 PM 88 °F - 58 °F 27% 29.70 in - North 19.6 mph - -  
3:00 PM 87.8 °F 87.1 °F 59.0 °F 38% 29.68 in 6.2 mi North 19.6 mph - N/A   Unknown
4:00 PM 82.4 °F 82.9 °F 60.8 °F 48% 29.71 in 6.2 mi North 21.9 mph - N/A   Unknown
5:00 PM 80.6 °F 82.3 °F 64.4 °F 58% 29.71 in 6.2 mi North 23.0 mph - N/A   Unknown
6:00 PM 78 °F - 67 °F 61% 29.75 in - North 19.6 mph - -  
6:00 PM 78.8 °F - 66.2 °F 65% 29.74 in 6.2 mi North 19.6 mph - N/A   Unknown
7:00 PM 77.0 °F - 68.0 °F 74% 29.77 in 6.2 mi North 19.6 mph - N/A   Unknown
8:00 PM 75.2 °F - 69.8 °F 83% 29.77 in 6.2 mi North 16.1 mph - N/A   Unknown
9:00 PM 75 °F - 70 °F 81% 29.81 in - North 10.4 mph - -  
9:00 PM 75.2 °F - 69.8 °F 83% 29.80 in 6.2 mi North 10.4 mph - N/A   Scattered Clouds
9:08 PM 75.2 °F - 69.8 °F 83% 29.80 in 6.2 mi East 8.1 mph - N/A   Mostly Cloudy
9:30 PM 75.2 °F - 69.8 °F 83% 29.80 in 6.2 mi NE 11.5 mph - N/A   Overcast
9:50 PM 77.0 °F - 69.8 °F 78% 29.80 in 6.2 mi NNE 10.4 mph - N/A   Mostly Cloudy
10:00 PM 77.0 °F - 69.8 °F 78% 29.80 in 6.2 mi NNE 12.7 mph - N/A   Mostly Cloudy
11:00 PM 75.2 °F - 69.8 °F 83% 29.80 in 6.2 mi NNE 13.8 mph - N/A   Unknown